North Platte, NE

12:33 PM CDT on August 19, 2017 (GMT -0500)
North Platte Regional-Bird

Weather History for KLBF - April, 2013

Change the Weather History Date:

Tuesday, April 16, 2013

  Actual Average Record
Temperature  
Mean Temperature 36 °F 48 °F  
Max Temperature 42 °F 62 °F 89 °F (1985)
Min Temperature 29 °F 33 °F 17 °F (1951)
Degree Days  
Heating Degree Days 29 17  
Month to date heating degree days 379 317  
Since 1 July heating degree days 6212 6182  
Cooling Degree Days 0 0  
Month to date cooling degree days 0 0  
Year to date cooling degree days 0 0  
Moisture  
Dew Point 27 °F    
Average Humidity 74    
Maximum Humidity 92    
Minimum Humidity 55    
Precipitation  
Precipitation 0.18 in 0.08 in 1.49 in (2016)
Month to date precipitation 1.22 1.04  
Year to date precipitation 2.99 2.93  
Snow  
Snow 5.30 in 0.10 in 5.30 in (2013)
Month to date snowfall 6.2 2.2  
Since 1 July snowfall 28.8 27.5  
Snow Depth 4.00 in    
Sea Level Pressure  
Sea Level Pressure 30.15 in    
Wind  
Wind Speed 11 mph (ENE)    
Max Wind Speed 22 mph    
Max Gust Speed 26 mph    
Visibility 6 miles    
Events Snow    
T = Trace of Precipitation, MM = Missing Value Source: NWS Daily Summary

Daily Weather History Graph

Daily Weather History Graph

Search for Another Location

Airport or City:

Trip Planner

Search our weather history database for the weather conditions in past years. The results will help you decide how hot, cold, wet, or windy it might be!

Date:

Astronomy

Apr. 16, 2013 Rise Set
Actual Time 7:01 AM CDT 8:24 PM CDT
Civil Twilight 6:32 AM CDT 8:52 PM CDT
Nautical Twilight 5:58 AM CDT 9:27 PM CDT
Astronomical Twilight 5:22 AM CDT 10:03 PM CDT
Moon 11:20 AM CDT (4/16) 1:23 AM CDT (4/16)
Length of Visible Light 14h 20m
Length of Day
13h 22m
Waxing Crescent, 33% of the Moon is Illuminated
Apr 16
Waxing Crescent
Apr 18
First Quarter
Apr 25
Full
May 2
Last Quarter
May 9
New

Hourly Weather History & Observations

Time (CDT) Temp. Windchill Dew Point Humidity Pressure Visibility Wind Dir Wind Speed Gust Speed Precip Events Conditions
12:32 AM 33.8 °F 24.3 °F 24.8 °F 70% 30.08 in 2.5 mi NE 13.8 mph - 0.00 in Snow Light Snow
12:53 AM 30.9 °F 24.3 °F 27.0 °F 85% 30.18 in 1.5 mi ENE 6.9 mph - 0.00 in Snow Light Snow
12:58 AM 30.2 °F 22.6 °F 26.6 °F 86% 30.10 in 1.2 mi NE 8.1 mph - 0.00 in Snow Light Snow
1:16 AM 30.2 °F 24.3 °F 26.6 °F 86% 30.11 in 0.8 mi NE 5.8 mph - 0.01 in Snow Light Snow
1:23 AM 30.2 °F 24.3 °F 28.4 °F 93% 30.11 in 0.8 mi NE 5.8 mph - 0.02 in Snow Light Snow
1:53 AM 30.0 °F 26.5 °F 28.0 °F 92% 30.18 in 0.8 mi NE 3.5 mph - 0.06 in Snow Light Snow
2:17 AM 30.2 °F 26.7 °F 28.4 °F 93% 30.13 in 1.0 mi NE 3.5 mph - 0.02 in Snow Light Snow
2:26 AM 30.2 °F 25.4 °F 28.4 °F 93% 30.13 in 1.0 mi NE 4.6 mph - 0.03 in Snow Light Snow
2:53 AM 28.9 °F 25.2 °F 27.0 °F 92% 30.18 in 1.0 mi ENE 3.5 mph - 0.05 in Snow Light Snow
3:10 AM 28.4 °F - 28.4 °F 100% 30.13 in 0.8 mi Calm Calm - 0.01 in Snow Light Snow
3:37 AM 28.4 °F - 26.6 °F 93% 30.12 in 1.0 mi Calm Calm - 0.03 in Snow Light Snow
3:53 AM 28.9 °F - 27.0 °F 92% 30.17 in 1.2 mi Calm Calm - 0.04 in Snow Light Snow
4:01 AM 28.4 °F 24.6 °F 26.6 °F 93% 30.12 in 1.8 mi North 3.5 mph - 0.00 in Snow Light Snow
4:13 AM 28.4 °F 24.6 °F 26.6 °F 93% 30.12 in 2.0 mi NNW 3.5 mph - 0.00 in Snow Light Snow
4:27 AM 28.4 °F 24.6 °F 26.6 °F 93% 30.12 in 1.5 mi NNW 3.5 mph - 0.01 in Snow Light Snow
4:37 AM 28.4 °F 24.6 °F 26.6 °F 93% 30.12 in 1.2 mi NNW 3.5 mph - 0.01 in Snow Light Snow
4:53 AM 28.9 °F 25.2 °F 27.0 °F 92% 30.16 in 1.8 mi North 3.5 mph - 0.02 in Snow Light Snow
5:25 AM 28.4 °F 22.2 °F 26.6 °F 93% 30.11 in 2.5 mi North 5.8 mph - 0.01 in Snow Light Snow
5:28 AM 28.4 °F 22.2 °F 26.6 °F 93% 30.11 in 3.0 mi North 5.8 mph - 0.01 in Snow Light Snow
5:53 AM 28.9 °F 22.8 °F 27.0 °F 92% 30.15 in 7.0 mi NNE 5.8 mph - 0.01 in Snow Light Snow
6:53 AM 30.2 °F 26.7 °F 26.6 °F 86% 30.11 in 10.0 mi NE 3.5 mph - N/A   Overcast
7:53 AM 30.0 °F - 27.0 °F 88% 30.19 in 10.0 mi Calm Calm - N/A   Overcast
8:53 AM 30.0 °F 26.5 °F 27.0 °F 88% 30.22 in 10.0 mi SE 3.5 mph - 0.00 in   Overcast
9:53 AM 30.9 °F 25.2 °F 28.0 °F 89% 30.22 in 10.0 mi ESE 5.8 mph - N/A   Overcast
10:18 AM 30.2 °F 24.3 °F 28.4 °F 93% 30.16 in 10.0 mi ESE 5.8 mph - N/A   Overcast
10:53 AM 32.0 °F 26.4 °F 28.0 °F 85% 30.23 in 10.0 mi ESE 5.8 mph - N/A   Overcast
11:53 AM 34.0 °F 27.2 °F 28.0 °F 79% 30.23 in 10.0 mi East 8.1 mph - N/A   Overcast
12:19 PM 35.6 °F 29.2 °F 28.4 °F 75% 30.17 in 10.0 mi ESE 8.1 mph - N/A   Overcast
12:53 PM 36.0 °F 28.5 °F 28.9 °F 76% 30.22 in 10.0 mi ESE 10.4 mph - N/A   Overcast
1:53 PM 37.0 °F 29.3 °F 30.0 °F 76% 30.19 in 10.0 mi East 11.5 mph - N/A   Overcast
2:53 PM 37.9 °F 29.6 °F 30.0 °F 73% 30.16 in 10.0 mi East 13.8 mph - N/A   Overcast
3:53 PM 39.9 °F 31.8 °F 28.9 °F 65% 30.13 in 10.0 mi ESE 15.0 mph 23.0 mph N/A   Overcast
4:53 PM 41.0 °F 32.5 °F 28.0 °F 60% 30.11 in 10.0 mi East 17.3 mph - N/A   Overcast
5:53 PM 41.0 °F 31.6 °F 27.0 °F 57% 30.09 in 10.0 mi East 20.7 mph - N/A   Overcast
6:53 PM 41.0 °F 32.2 °F 26.1 °F 55% 30.09 in 10.0 mi East 18.4 mph - N/A   Overcast
7:53 PM 39.9 °F 30.5 °F 26.1 °F 58% 30.11 in 10.0 mi East 19.6 mph 24.2 mph N/A   Overcast
8:53 PM 39.0 °F 32.3 °F 27.0 °F 62% 30.13 in 10.0 mi East 10.4 mph - N/A   Overcast
9:53 PM 39.9 °F 30.2 °F 27.0 °F 60% 30.16 in 10.0 mi East 20.7 mph 26.5 mph N/A   Overcast
10:53 PM 39.0 °F 29.9 °F 28.0 °F 65% 30.17 in 10.0 mi East 17.3 mph - N/A   Overcast
11:51 PM 37.4 °F 28.9 °F 28.4 °F 70% 30.12 in 10.0 mi East 13.8 mph - N/A   Overcast
11:53 PM 37.9 °F 28.9 °F 28.9 °F 70% 30.18 in 10.0 mi East 16.1 mph - N/A   Overcast